COSMOS 2520

Last updated on Tue Oct 14 2025 00:02:49 GMT+0000 (Coordinated Universal Time)

1 42907U 17046A 25286.21100537 .00000125 00000+0 00000+0 0 9998 2 42907 0.0281 110.3624 0000487 189.3817 203.2772 1.00273493 29922
UTC large
Height (km)
Speed (km/s)
/
Latitude / Longitude
Inclination (degrees)
Orbital Period (minutes)
Azimuth
Elevation
Range (km)
Doppler Factor

Next 0 passes for location: London (51.5072 / 0.1276)

Sorry there are no passes over London.